Year,Month,Day,Hour,Minute,Value (Times are PST for temperature in C)
2023,05,14,06,32,14.90
2023,05,14,06,33,15.00
2023,05,14,06,34,15.00
2023,05,14,06,35,15.10
2023,05,14,06,36,15.10
2023,05,14,06,37,15.20
2023,05,14,06,38,15.30
2023,05,14,06,39,15.30
2023,05,14,06,40,15.40
2023,05,14,06,41,15.40
2023,05,14,06,42,15.50
2023,05,14,06,43,15.50
2023,05,14,06,44,15.60
2023,05,14,06,45,15.60
2023,05,14,06,46,15.70
2023,05,14,06,47,15.70
2023,05,14,06,48,15.80
2023,05,14,06,49,15.80
2023,05,14,06,50,15.90
2023,05,14,06,51,16.00
2023,05,14,06,52,16.00
2023,05,14,06,53,16.10
2023,05,14,06,54,16.20
2023,05,14,06,55,16.20
2023,05,14,06,56,16.30
2023,05,14,06,57,16.30
2023,05,14,06,58,16.40
2023,05,14,06,59,16.50
2023,05,14,07,00,16.60
2023,05,14,07,01,16.70
2023,05,14,07,02,16.70
2023,05,14,07,03,16.80
2023,05,14,07,04,16.90
2023,05,14,07,05,17.00
2023,05,14,07,06,17.10
2023,05,14,07,07,17.20
2023,05,14,07,08,17.20
2023,05,14,07,09,17.30
2023,05,14,07,10,17.40
2023,05,14,07,11,17.40
2023,05,14,07,12,17.50
2023,05,14,07,13,17.60
2023,05,14,07,14,17.60
2023,05,14,07,15,17.70
2023,05,14,07,16,17.80
2023,05,14,07,17,17.80
2023,05,14,07,18,17.90
2023,05,14,07,19,18.00
2023,05,14,07,20,18.10
2023,05,14,07,21,18.10
2023,05,14,07,22,18.20
2023,05,14,07,23,18.30
2023,05,14,07,24,18.40
2023,05,14,07,25,18.40
2023,05,14,07,26,18.50
2023,05,14,07,27,18.60
2023,05,14,07,28,18.70
2023,05,14,07,29,18.80
2023,05,14,07,30,18.80
2023,05,14,07,31,18.90
2023,05,14,07,32,19.00
2023,05,14,07,33,19.10
2023,05,14,07,34,19.20
2023,05,14,07,35,19.20
2023,05,14,07,36,19.30
2023,05,14,07,37,19.40
2023,05,14,07,38,19.40
2023,05,14,07,39,19.50
2023,05,14,07,40,19.60
2023,05,14,07,41,19.70
2023,05,14,07,42,19.80
2023,05,14,07,43,19.90
2023,05,14,07,44,20.00
2023,05,14,07,45,20.10
2023,05,14,07,46,20.20
2023,05,14,07,47,20.30
2023,05,14,07,48,20.40
2023,05,14,07,49,20.50
2023,05,14,07,50,20.50
2023,05,14,07,51,20.60
2023,05,14,07,52,20.70
2023,05,14,07,53,20.80
2023,05,14,07,54,20.80
2023,05,14,07,55,20.90
2023,05,14,07,56,20.90
2023,05,14,07,57,21.00
2023,05,14,07,58,21.10
2023,05,14,07,59,21.20
2023,05,14,08,00,21.20
2023,05,14,08,01,21.30
2023,05,14,08,02,21.40
2023,05,14,08,03,21.40
2023,05,14,08,04,21.50
2023,05,14,08,05,21.60
2023,05,14,08,06,21.70
2023,05,14,08,07,21.70
2023,05,14,08,08,21.80
2023,05,14,08,09,21.80
2023,05,14,08,10,21.90
2023,05,14,08,11,21.90
2023,05,14,08,12,22.00
2023,05,14,08,13,22.00
2023,05,14,08,14,22.10
2023,05,14,08,15,22.10
2023,05,14,08,16,22.10
2023,05,14,08,17,22.20
2023,05,14,08,18,22.20
2023,05,14,08,19,22.20
2023,05,14,08,20,22.20
2023,05,14,08,21,22.20
2023,05,14,08,22,22.20
2023,05,14,08,23,22.30
2023,05,14,08,24,22.30
2023,05,14,08,25,22.30
2023,05,14,08,26,22.30
2023,05,14,08,27,22.40
2023,05,14,08,28,22.40
2023,05,14,08,29,22.50
2023,05,14,08,30,22.50
2023,05,14,08,31,22.60
2023,05,14,08,32,22.70
2023,05,14,08,33,22.70
2023,05,14,08,34,22.80
2023,05,14,08,35,22.90
2023,05,14,08,36,22.90
2023,05,14,08,37,23.00
2023,05,14,08,38,23.10
2023,05,14,08,39,23.20
2023,05,14,08,40,23.30
2023,05,14,08,41,23.30
2023,05,14,08,42,23.30
2023,05,14,08,43,23.30
2023,05,14,08,44,23.30
2023,05,14,08,45,23.40
2023,05,14,08,46,23.40
2023,05,14,08,47,23.40
2023,05,14,08,48,23.40
2023,05,14,08,49,23.40
2023,05,14,08,50,23.40
2023,05,14,08,51,23.50
2023,05,14,08,52,23.50
2023,05,14,08,53,23.60
2023,05,14,08,54,23.70
2023,05,14,08,55,23.70
2023,05,14,08,56,23.70
2023,05,14,08,57,23.80
2023,05,14,08,58,23.80
2023,05,14,08,59,23.80
2023,05,14,09,00,23.90
2023,05,14,09,01,24.00
2023,05,14,09,02,24.00
2023,05,14,09,03,24.10
2023,05,14,09,04,24.10
2023,05,14,09,05,24.20
2023,05,14,09,06,24.20
2023,05,14,09,07,24.20
2023,05,14,09,08,24.20
2023,05,14,09,09,24.20
2023,05,14,09,10,24.10
2023,05,14,09,11,24.10
2023,05,14,09,12,24.10
2023,05,14,09,13,24.10
2023,05,14,09,14,24.10
2023,05,14,09,15,24.00
2023,05,14,09,16,24.00
2023,05,14,09,17,23.90
2023,05,14,09,18,23.90
2023,05,14,09,19,23.90
2023,05,14,09,20,23.90
2023,05,14,09,21,23.90
2023,05,14,09,22,23.90
2023,05,14,09,23,24.00
2023,05,14,09,24,24.10
2023,05,14,09,25,24.10
2023,05,14,09,26,24.20
2023,05,14,09,27,24.20
2023,05,14,09,28,24.20
2023,05,14,09,29,24.20
2023,05,14,09,30,24.30
2023,05,14,09,31,24.30
2023,05,14,09,32,24.30
2023,05,14,09,33,24.30
2023,05,14,09,34,24.30
2023,05,14,09,35,24.30
2023,05,14,09,36,24.40
2023,05,14,09,37,24.40
2023,05,14,09,38,24.40
2023,05,14,09,39,24.50
2023,05,14,09,40,24.60
2023,05,14,09,41,24.60
2023,05,14,09,42,24.70
2023,05,14,09,43,24.80
2023,05,14,09,44,24.80
2023,05,14,09,45,24.80
2023,05,14,09,46,24.90
2023,05,14,09,47,24.90
2023,05,14,09,48,24.80
2023,05,14,09,49,24.80
2023,05,14,09,50,24.80
2023,05,14,09,51,24.80
2023,05,14,09,52,24.80
2023,05,14,09,53,24.70
2023,05,14,09,54,24.70
2023,05,14,09,55,24.70
2023,05,14,09,56,24.80
2023,05,14,09,57,24.80
2023,05,14,09,58,24.70
2023,05,14,09,59,24.70
2023,05,14,10,00,24.70
2023,05,14,10,01,24.70
2023,05,14,10,02,24.70
2023,05,14,10,03,24.70
2023,05,14,10,04,24.70
2023,05,14,10,05,24.70
2023,05,14,10,06,24.80
2023,05,14,10,07,24.90
2023,05,14,10,08,24.90
2023,05,14,10,09,24.90
2023,05,14,10,10,25.00
2023,05,14,10,11,25.10
2023,05,14,10,12,25.10
2023,05,14,10,13,25.10
2023,05,14,10,14,25.10
2023,05,14,10,15,25.10
2023,05,14,10,16,25.10
2023,05,14,10,17,25.20
2023,05,14,10,18,25.10
2023,05,14,10,19,25.10
2023,05,14,10,20,25.10
2023,05,14,10,21,25.10
2023,05,14,10,22,25.10
2023,05,14,10,23,25.10
2023,05,14,10,24,25.20
2023,05,14,10,25,25.20
2023,05,14,10,26,25.20
2023,05,14,10,27,25.30
2023,05,14,10,28,25.40
2023,05,14,10,29,25.40
2023,05,14,10,30,25.50
2023,05,14,10,31,25.60
2023,05,14,10,32,25.60
2023,05,14,10,33,25.50
2023,05,14,10,34,25.50
2023,05,14,10,35,25.50
2023,05,14,10,36,25.50
2023,05,14,10,37,25.60
2023,05,14,10,38,25.60
2023,05,14,10,39,25.70
2023,05,14,10,40,25.80
2023,05,14,10,41,25.90
2023,05,14,10,42,26.00
2023,05,14,10,43,26.10
2023,05,14,10,44,26.10
2023,05,14,10,45,26.20
2023,05,14,10,46,26.20
2023,05,14,10,47,26.20
2023,05,14,10,48,26.20
2023,05,14,10,49,26.30
2023,05,14,10,50,26.40
2023,05,14,10,51,26.50
2023,05,14,10,52,26.50
2023,05,14,10,53,26.60
2023,05,14,10,54,26.70
2023,05,14,10,55,26.70
2023,05,14,10,56,26.80
2023,05,14,10,57,26.90
2023,05,14,10,58,27.00
2023,05,14,10,59,27.10
2023,05,14,11,00,27.20
2023,05,14,11,01,27.20
2023,05,14,11,02,27.30
2023,05,14,11,03,27.30
2023,05,14,11,04,27.30
2023,05,14,11,05,27.30
2023,05,14,11,06,27.40
2023,05,14,11,07,27.50
2023,05,14,11,08,27.50
2023,05,14,11,09,27.60
2023,05,14,11,10,27.70
2023,05,14,11,11,27.70
2023,05,14,11,12,27.80
2023,05,14,11,13,27.80
2023,05,14,11,14,27.80
2023,05,14,11,15,27.80
2023,05,14,11,16,28.00
2023,05,14,11,17,28.10
2023,05,14,11,18,28.10
2023,05,14,11,19,28.20
2023,05,14,11,20,28.30
2023,05,14,11,21,28.30
2023,05,14,11,22,28.20
2023,05,14,11,23,28.10
2023,05,14,11,24,28.10
2023,05,14,11,25,28.00
2023,05,14,11,26,27.90
2023,05,14,11,27,27.90
2023,05,14,11,28,27.90
2023,05,14,11,29,27.80
2023,05,14,11,30,27.90
2023,05,14,11,31,27.90
2023,05,14,11,32,28.00
2023,05,14,11,33,28.00
2023,05,14,11,34,28.10
2023,05,14,11,35,28.10
2023,05,14,11,36,28.20
2023,05,14,11,37,28.20
2023,05,14,11,38,28.30
2023,05,14,11,39,28.40
2023,05,14,11,40,28.40
2023,05,14,11,41,28.50
2023,05,14,11,42,28.50
2023,05,14,11,43,28.50
2023,05,14,11,44,28.50
2023,05,14,11,45,28.40
2023,05,14,11,46,28.40
2023,05,14,11,47,28.30
2023,05,14,11,48,28.30
2023,05,14,11,49,28.20
2023,05,14,11,50,28.20
2023,05,14,11,51,28.20
2023,05,14,11,52,28.20
2023,05,14,11,53,28.20
2023,05,14,11,54,28.30
2023,05,14,11,55,28.30
2023,05,14,11,56,28.40
2023,05,14,11,57,28.40
2023,05,14,11,58,28.50
2023,05,14,11,59,28.60
2023,05,14,12,00,28.60
2023,05,14,12,01,28.60
2023,05,14,12,02,28.70
2023,05,14,12,03,28.70
2023,05,14,12,04,28.80
2023,05,14,12,05,28.70
2023,05,14,12,06,28.70
2023,05,14,12,07,28.70
2023,05,14,12,08,28.70
2023,05,14,12,09,28.70
2023,05,14,12,10,28.70
2023,05,14,12,11,28.70
2023,05,14,12,12,28.60
2023,05,14,12,13,28.50
2023,05,14,12,14,28.40
2023,05,14,12,15,28.30
2023,05,14,12,16,28.30
2023,05,14,12,17,28.30
2023,05,14,12,18,28.30
2023,05,14,12,19,28.30
2023,05,14,12,20,28.30
2023,05,14,12,21,28.30
2023,05,14,12,22,28.30
2023,05,14,12,23,28.30
2023,05,14,12,24,28.30
2023,05,14,12,25,28.30
2023,05,14,12,26,28.30
2023,05,14,12,27,28.40
2023,05,14,12,28,28.50
2023,05,14,12,29,28.50
2023,05,14,12,30,28.50
2023,05,14,12,31,28.50
2023,05,14,12,32,28.60
2023,05,14,12,33,28.60
2023,05,14,12,34,28.60
2023,05,14,12,35,28.50
2023,05,14,12,36,28.50
2023,05,14,12,37,28.50
2023,05,14,12,38,28.50
2023,05,14,12,39,28.60
2023,05,14,12,40,28.60
2023,05,14,12,41,28.60
2023,05,14,12,42,28.60
2023,05,14,12,43,28.50
2023,05,14,12,44,28.40
2023,05,14,12,45,28.40
2023,05,14,12,46,28.30
2023,05,14,12,47,28.30
2023,05,14,12,48,28.30
2023,05,14,12,49,28.20
2023,05,14,12,50,28.20
2023,05,14,12,51,28.20
2023,05,14,12,52,28.20
2023,05,14,12,53,28.20
2023,05,14,12,54,28.20
2023,05,14,12,55,28.20
2023,05,14,12,56,28.20
2023,05,14,12,57,28.10
2023,05,14,12,58,28.10
2023,05,14,12,59,28.10
2023,05,14,13,00,28.10
2023,05,14,13,01,28.10
2023,05,14,13,02,28.00
2023,05,14,13,03,28.00
2023,05,14,13,04,28.00
2023,05,14,13,05,28.10
2023,05,14,13,06,28.10
2023,05,14,13,07,28.20
2023,05,14,13,08,28.20
2023,05,14,13,09,28.30
2023,05,14,13,10,28.20
2023,05,14,13,11,28.20
2023,05,14,13,12,28.20
2023,05,14,13,13,28.20
2023,05,14,13,14,28.20
2023,05,14,13,15,28.20
2023,05,14,13,16,28.20
2023,05,14,13,17,28.20
2023,05,14,13,18,28.20
2023,05,14,13,19,28.20
2023,05,14,13,20,28.20
2023,05,14,13,21,28.20
2023,05,14,13,22,28.20
2023,05,14,13,23,28.20
2023,05,14,13,24,28.20
2023,05,14,13,25,28.30
2023,05,14,13,26,28.30
2023,05,14,13,27,28.40
2023,05,14,13,28,28.50
2023,05,14,13,29,28.60
2023,05,14,13,30,28.70
2023,05,14,13,31,28.80
2023,05,14,13,32,28.90
2023,05,14,13,33,29.10
2023,05,14,13,34,29.20
2023,05,14,13,35,29.30
2023,05,14,13,36,29.30
2023,05,14,13,37,29.30
2023,05,14,13,38,29.30
2023,05,14,13,39,29.20
2023,05,14,13,40,29.20
2023,05,14,13,41,29.20
2023,05,14,13,42,29.20
2023,05,14,13,43,29.20
2023,05,14,13,44,29.20
2023,05,14,13,45,29.20
2023,05,14,13,46,29.30
2023,05,14,13,47,29.30
2023,05,14,13,48,29.30
2023,05,14,13,49,29.40
2023,05,14,13,50,29.40
2023,05,14,13,51,29.40
2023,05,14,13,52,29.30
2023,05,14,13,53,29.30
2023,05,14,13,54,29.30
2023,05,14,13,55,29.30
2023,05,14,13,56,29.40
2023,05,14,13,57,29.50
2023,05,14,13,58,29.50
2023,05,14,13,59,29.60
2023,05,14,14,00,29.60
2023,05,14,14,01,29.60
2023,05,14,14,02,29.50
2023,05,14,14,03,29.50
2023,05,14,14,04,29.50
2023,05,14,14,05,29.40
2023,05,14,14,06,29.40
2023,05,14,14,07,29.30
2023,05,14,14,08,29.40
2023,05,14,14,09,29.40
2023,05,14,14,10,29.40
2023,05,14,14,11,29.50
2023,05,14,14,12,29.50
2023,05,14,14,13,29.60
2023,05,14,14,14,29.60
2023,05,14,14,15,29.60
2023,05,14,14,16,29.70
2023,05,14,14,17,29.70
2023,05,14,14,18,29.70
2023,05,14,14,19,29.70
2023,05,14,14,20,29.70
2023,05,14,14,21,29.60
2023,05,14,14,22,29.60
2023,05,14,14,23,29.60
2023,05,14,14,24,29.60
2023,05,14,14,25,29.70
2023,05,14,14,26,29.80
2023,05,14,14,27,29.80
2023,05,14,14,28,29.80
2023,05,14,14,29,29.80
2023,05,14,14,30,29.80
2023,05,14,14,31,29.90
2023,05,14,14,32,29.90
2023,05,14,14,33,29.90
2023,05,14,14,34,29.90
2023,05,14,14,35,30.00
2023,05,14,14,36,30.00
2023,05,14,14,37,30.10
2023,05,14,14,38,30.10
2023,05,14,14,39,30.10
2023,05,14,14,40,30.10
2023,05,14,14,41,30.10
2023,05,14,14,42,30.10
2023,05,14,14,43,30.10
2023,05,14,14,44,30.10
2023,05,14,14,45,30.20
2023,05,14,14,46,30.20
2023,05,14,14,47,30.30
2023,05,14,14,48,30.40
2023,05,14,14,49,30.40
2023,05,14,14,50,30.40
2023,05,14,14,51,30.40
2023,05,14,14,52,30.40
2023,05,14,14,53,30.40
2023,05,14,14,54,30.50
2023,05,14,14,55,30.50
2023,05,14,14,56,30.60
2023,05,14,14,57,30.60
2023,05,14,14,58,30.70
2023,05,14,14,59,30.80
2023,05,14,15,00,30.80
2023,05,14,15,01,30.80
2023,05,14,15,02,30.80
2023,05,14,15,03,30.80
2023,05,14,15,04,30.80
2023,05,14,15,05,30.70
2023,05,14,15,06,30.70
2023,05,14,15,07,30.70
2023,05,14,15,08,30.60
2023,05,14,15,09,30.60
2023,05,14,15,10,30.60
2023,05,14,15,11,30.50
2023,05,14,15,12,30.50
2023,05,14,15,13,30.50
2023,05,14,15,14,30.50
2023,05,14,15,15,30.50
2023,05,14,15,16,30.50
2023,05,14,15,17,30.60
2023,05,14,15,18,30.60
2023,05,14,15,19,30.70
2023,05,14,15,20,30.70
2023,05,14,15,21,30.70
2023,05,14,15,22,30.80
2023,05,14,15,23,30.90
2023,05,14,15,24,31.00
2023,05,14,15,25,31.00
2023,05,14,15,26,31.10
2023,05,14,15,27,31.10
2023,05,14,15,28,31.10
2023,05,14,15,29,31.20
2023,05,14,15,30,31.20
2023,05,14,15,31,31.30
2023,05,14,15,32,31.30
2023,05,14,15,33,31.30
2023,05,14,15,34,31.30
2023,05,14,15,35,31.30
2023,05,14,15,36,31.30
2023,05,14,15,37,31.30
2023,05,14,15,38,31.30
2023,05,14,15,39,31.20
2023,05,14,15,40,31.20
2023,05,14,15,41,31.20
2023,05,14,15,42,31.20
2023,05,14,15,43,31.10
2023,05,14,15,44,31.10
2023,05,14,15,45,31.10
2023,05,14,15,46,31.10
2023,05,14,15,47,31.00
2023,05,14,15,48,30.90
2023,05,14,15,49,30.80
2023,05,14,15,50,30.70
2023,05,14,15,51,30.60
2023,05,14,15,52,30.60
2023,05,14,15,53,30.60
2023,05,14,15,54,30.60
2023,05,14,15,55,30.60
2023,05,14,15,56,30.60
2023,05,14,15,57,30.60
2023,05,14,15,58,30.60
2023,05,14,15,59,30.60
2023,05,14,16,00,30.60
2023,05,14,16,01,30.70
2023,05,14,16,02,30.70
2023,05,14,16,03,30.80
2023,05,14,16,04,30.80
2023,05,14,16,05,30.80
2023,05,14,16,06,30.80
2023,05,14,16,07,30.90
2023,05,14,16,08,30.90
2023,05,14,16,09,30.90
2023,05,14,16,10,31.00
2023,05,14,16,11,31.00
2023,05,14,16,12,31.10
2023,05,14,16,13,31.10
2023,05,14,16,14,31.10
2023,05,14,16,15,31.10
2023,05,14,16,16,31.10
2023,05,14,16,17,31.20
2023,05,14,16,18,31.20
2023,05,14,16,19,31.20
2023,05,14,16,20,31.30
2023,05,14,16,21,31.30
2023,05,14,16,22,31.40
2023,05,14,16,23,31.40
2023,05,14,16,24,31.50
2023,05,14,16,25,31.50
2023,05,14,16,26,31.60
2023,05,14,16,27,31.60
2023,05,14,16,28,31.60
2023,05,14,16,29,31.60
2023,05,14,16,30,31.70
2023,05,14,16,31,31.70
2023,05,14,16,32,31.80
2023,05,14,16,33,31.80
2023,05,14,16,34,31.80
2023,05,14,16,35,31.80
2023,05,14,16,36,31.80
2023,05,14,16,37,31.80
2023,05,14,16,38,31.80
2023,05,14,16,39,31.80
2023,05,14,16,40,31.80
2023,05,14,16,41,31.80
2023,05,14,16,42,31.80
2023,05,14,16,43,31.80
2023,05,14,16,44,31.80
2023,05,14,16,45,31.80
2023,05,14,16,46,31.80
2023,05,14,16,47,31.90
2023,05,14,16,48,31.90
2023,05,14,16,49,31.90
2023,05,14,16,50,31.90
2023,05,14,16,51,32.00
2023,05,14,16,52,32.00
2023,05,14,16,53,31.90
2023,05,14,16,54,31.90
2023,05,14,16,55,31.90
2023,05,14,16,56,31.90
2023,05,14,16,57,31.90
2023,05,14,16,58,31.90
2023,05,14,16,59,31.90
2023,05,14,17,00,31.90
2023,05,14,17,01,31.90
2023,05,14,17,02,31.90
2023,05,14,17,03,31.90
2023,05,14,17,04,31.90
2023,05,14,17,05,31.90
2023,05,14,17,06,31.90
2023,05,14,17,07,31.90
2023,05,14,17,08,31.90
2023,05,14,17,09,31.80
2023,05,14,17,10,31.80
2023,05,14,17,11,31.80
2023,05,14,17,12,31.80
2023,05,14,17,13,31.80
2023,05,14,17,14,31.80
2023,05,14,17,15,31.80
2023,05,14,17,16,31.80
2023,05,14,17,17,31.80
2023,05,14,17,18,31.80
2023,05,14,17,19,31.80
2023,05,14,17,20,31.80
2023,05,14,17,21,31.80
2023,05,14,17,22,31.80
2023,05,14,17,23,31.80
2023,05,14,17,24,31.80
2023,05,14,17,25,31.90
2023,05,14,17,26,31.90
2023,05,14,17,27,31.80
2023,05,14,17,28,31.80
2023,05,14,17,29,31.80
2023,05,14,17,30,31.90
2023,05,14,17,31,31.90
2023,05,14,17,32,31.90
2023,05,14,17,33,32.00
2023,05,14,17,34,32.00
2023,05,14,17,35,32.00
2023,05,14,17,36,32.00
2023,05,14,17,37,32.00
2023,05,14,17,38,32.00
2023,05,14,17,39,32.00
2023,05,14,17,40,32.00
2023,05,14,17,41,32.10
2023,05,14,17,42,32.10
2023,05,14,17,43,32.10
2023,05,14,17,44,32.10
2023,05,14,17,45,32.10
2023,05,14,17,46,32.10
2023,05,14,17,47,32.10
2023,05,14,17,48,32.10
2023,05,14,17,49,32.10
2023,05,14,17,50,32.00
2023,05,14,17,51,32.00
2023,05,14,17,52,31.90
2023,05,14,17,53,31.90
2023,05,14,17,54,31.80
2023,05,14,17,55,31.80
2023,05,14,17,56,31.80
2023,05,14,17,57,31.80
2023,05,14,17,58,31.80
2023,05,14,17,59,31.80
2023,05,14,18,00,31.80
2023,05,14,18,01,31.80
2023,05,14,18,02,31.90
2023,05,14,18,03,31.90
2023,05,14,18,04,31.90
2023,05,14,18,05,31.90
2023,05,14,18,06,31.80
2023,05,14,18,07,31.80
2023,05,14,18,08,31.70
2023,05,14,18,09,31.70
2023,05,14,18,10,31.60
2023,05,14,18,11,31.60
2023,05,14,18,12,31.60
2023,05,14,18,13,31.50
2023,05,14,18,14,31.50
2023,05,14,18,15,31.50
2023,05,14,18,16,31.40
2023,05,14,18,17,31.40
2023,05,14,18,18,31.40
2023,05,14,18,19,31.40
2023,05,14,18,20,31.40
2023,05,14,18,21,31.40
2023,05,14,18,22,31.40
2023,05,14,18,23,31.40
2023,05,14,18,24,31.40
2023,05,14,18,25,31.40
2023,05,14,18,26,31.40
2023,05,14,18,27,31.40
2023,05,14,18,28,31.40
2023,05,14,18,29,31.40
2023,05,14,18,30,31.40
2023,05,14,18,31,31.40
2023,05,14,18,32,31.40
2023,05,14,18,33,31.40
2023,05,14,18,34,31.40
2023,05,14,18,35,31.40
2023,05,14,18,36,31.40
2023,05,14,18,37,31.30
2023,05,14,18,38,31.30
2023,05,14,18,39,31.30
2023,05,14,18,40,31.30
2023,05,14,18,41,31.30
2023,05,14,18,42,31.30
2023,05,14,18,43,31.30
2023,05,14,18,44,31.20
2023,05,14,18,45,31.20
2023,05,14,18,46,31.20
2023,05,14,18,47,31.20
2023,05,14,18,48,31.10
2023,05,14,18,49,31.10
2023,05,14,18,50,31.10
2023,05,14,18,51,31.00
2023,05,14,18,52,31.00
2023,05,14,18,53,31.00
2023,05,14,18,54,30.90
2023,05,14,18,55,30.90
2023,05,14,18,56,30.90
2023,05,14,18,57,30.90
2023,05,14,18,58,30.90
2023,05,14,18,59,30.90
2023,05,14,19,00,30.90
2023,05,14,19,01,30.80
2023,05,14,19,02,30.80
2023,05,14,19,03,30.80
2023,05,14,19,04,30.80
2023,05,14,19,05,30.80
2023,05,14,19,06,30.80
2023,05,14,19,07,30.80
2023,05,14,19,08,30.80
2023,05,14,19,09,30.80
2023,05,14,19,10,30.70
2023,05,14,19,11,30.70
2023,05,14,19,12,30.70
2023,05,14,19,13,30.70
2023,05,14,19,14,30.70
2023,05,14,19,15,30.70
2023,05,14,19,16,30.70
2023,05,14,19,17,30.70
2023,05,14,19,18,30.70
2023,05,14,19,19,30.60
2023,05,14,19,20,30.60
2023,05,14,19,21,30.60
2023,05,14,19,22,30.60
2023,05,14,19,23,30.60
2023,05,14,19,24,30.60
2023,05,14,19,25,30.60
2023,05,14,19,26,30.50
2023,05,14,19,27,30.50
2023,05,14,19,28,30.50
2023,05,14,19,29,30.50
2023,05,14,19,30,30.40
2023,05,14,19,31,30.40
2023,05,14,19,32,30.40
2023,05,14,19,33,30.30
2023,05,14,19,34,30.30
2023,05,14,19,35,30.30
2023,05,14,19,36,30.20
2023,05,14,19,37,30.20
2023,05,14,19,38,30.20
2023,05,14,19,39,30.10
2023,05,14,19,40,30.10
2023,05,14,19,41,30.10
2023,05,14,19,42,30.00
2023,05,14,19,43,30.00
2023,05,14,19,44,29.90
2023,05,14,19,45,29.90
2023,05,14,19,46,29.90
2023,05,14,19,47,29.80
2023,05,14,19,48,29.80
2023,05,14,19,49,29.80
2023,05,14,19,50,29.70
2023,05,14,19,51,29.70
2023,05,14,19,52,29.70
2023,05,14,19,53,29.60
2023,05,14,19,54,29.60
2023,05,14,19,55,29.60
2023,05,14,19,56,29.50
2023,05,14,19,57,29.40
2023,05,14,19,58,29.40
2023,05,14,19,59,29.30
2023,05,14,20,00,29.30
2023,05,14,20,01,29.30
2023,05,14,20,02,29.20
2023,05,14,20,03,29.20
2023,05,14,20,04,29.10
2023,05,14,20,05,29.10
2023,05,14,20,06,29.10
2023,05,14,20,07,29.00
2023,05,14,20,08,29.00
2023,05,14,20,09,28.90
2023,05,14,20,10,28.90
2023,05,14,20,11,28.90
2023,05,14,20,12,28.90
2023,05,14,20,13,28.80
2023,05,14,20,14,28.80
2023,05,14,20,15,28.80
2023,05,14,20,16,28.80
2023,05,14,20,17,28.80
2023,05,14,20,18,28.70
2023,05,14,20,19,28.70
2023,05,14,20,20,28.70
2023,05,14,20,21,28.70
2023,05,14,20,22,28.70
2023,05,14,20,23,28.60
2023,05,14,20,24,28.60
2023,05,14,20,25,28.60
2023,05,14,20,26,28.50
2023,05,14,20,27,28.50
2023,05,14,20,28,28.50
2023,05,14,20,29,28.50
2023,05,14,20,30,28.50
2023,05,14,20,31,28.50
2023,05,14,20,32,28.50
2023,05,14,20,33,28.50
2023,05,14,20,34,28.50
2023,05,14,20,35,28.50
2023,05,14,20,36,28.50
2023,05,14,20,37,28.50
